Regional Weather Roundup
Issued by NWS Wilmington, NC

Home | Current Version | Previous Version | Text Only | Print | Product List | Glossary On
Versions: 1 2 3 4 5 6 7 8 9 10 11 12 13 14 15 16 17 18 19 20 21 22 23 24 25 26 27 28 29 30 31 32 33 34 35 36 37 38 39 40 41 42 43 44 45 46 47 48 49 50
000
ASUS42 KILM 030113
RWRILM
RWRILM
REGIONAL HOURLY WEATHER ROUNDUP
NATIONAL WEATHER SERVICE WILMINGTON NC
900 PM EDT WED SEP 02 2015

NOTE: "FAIR" INDICATES FEW OR NO CLOUDS BELOW 12,000 FEET WITH NO
SIGNIFICANT WEATHER AND/OR OBSTRUCTIONS TO VISIBILITY.

...............WFO WILMINGTON COUNTY WARNING AREA...............

......COASTAL NC AND SC COUNTIES......

CITY           SKY/WX    TMP DP  RH WIND       PRES   REMARKS
WILMINGTON     PTCLDY    81  73  76 SW7       29.96R
N MYRTLE BEACH PTCLDY    81  73  76 SW10      29.96S
MYRTLE BEACH   CLEAR     82  72  69 SW7       29.98S

......INLAND NC AND SC COUNTIES.......

CITY           SKY/WX    TMP DP  RH WIND       PRES   REMARKS
LUMBERTON      MOCLDY    78  73  84 CALM      29.95R
ELIZABETHTOWN  MOCLDY    82  72  73 S3        29.96R
WHITEVILLE     PTCLDY    80  74  83 CALM      29.96R
FLORENCE       PTCLDY    81  73  76 SW5       29.96R
DARLINGTON     NOT AVBL

....................REST OF NORTH CAROLINA......................

.........EASTERN NC.........

CITY           SKY/WX    TMP DP  RH WIND       PRES   REMARKS
CAPE HATTERAS  CLEAR     75  71  87 CALM      29.97R
JACKSONVILLE   PTCLDY    79  70  73 CALM      29.96R
MOREHEAD CITY  PTCLDY    79  75  87 SW6       29.96S
KENANSVILLE      N/A     76  74  93 CALM      29.96S
NEW BERN       CLEAR     79  74  84 S5        29.97R
ELIZABETH CITY LGT RAIN  71  68  90 W5        29.96S

.........CENTRAL NC.........

CITY           SKY/WX    TMP DP  RH WIND       PRES   REMARKS
RALEIGH DURHAM PTCLDY    78  70  76 CALM      29.96R
ROCKY MOUNT    PTCLDY    78  71  79 S3        29.94S
ROANOKE RAPIDS NOT AVBL
FAYETTEVILLE   PTCLDY    82  72  71 S6        29.94S
HOFFMAN        NOT AVBL

.........WESTERN NC.........

CITY           SKY/WX    TMP DP  RH WIND       PRES   REMARKS
CHARLOTTE      MOCLDY    86  65  49 SW7       29.99R
GREENSBORO     CLOUDY    83  67  58 NW7       29.99R
HICKORY        NOT AVBL
BOONE          NOT AVBL
ASHEVILLE      NOT AVBL

.....................REST OF SOUTH CAROLINA.....................

.........EASTERN SC.........

CITY           SKY/WX    TMP DP  RH WIND       PRES   REMARKS
CHARLESTON     PTCLDY    80  75  84 SW5       29.99R
BEAUFORT MCAS  MOCLDY    78  75  90 S3        30.00R
HILTON HEAD    CLOUDY    75  75 100 CALM      30.01R

.........CENTRAL SC.........

CITY           SKY/WX    TMP DP  RH WIND       PRES   REMARKS
COLUMBIA       PTCLDY    84  72  67 W3        29.96R
ORANGEBURG     CLEAR     79  72  79 SW7       29.99R
SUMTER SHAW    NOT AVBL

.........WESTERN SC.........

CITY           SKY/WX    TMP DP  RH WIND       PRES   REMARKS
GREENVILLE     NOT AVBL
ROCK HILL      PTCLDY    78  68  71 SW6       29.99R
ANDERSON       MOCLDY    78  71  79 CALM      30.01R
CLEMSON        NOT AVBL
GREENWOOD      CLOUDY    78  72  81 CALM      30.01S


...................COASTAL AND OFFSHORE REPORTS..................

................LOCAL PIERS AND NC RESERVE................


STATION/POSITION TIME  SKY/WX   TEMP    WIND        PRES    VSBY
                                AIR SEA DIR/SP/G
                 (UTC)          (F)     (DEG/KT/KT) (MB)    (MI)
JOHNY MRCER PIER 0000            83 85  220/ 10/ 13 1013.7R
NC RESRV MASNBRO NOT AVBL
OCEAN CREST PIER NOT AVBL
SPRINGMAID  PIER 0000            83 84  190/ 14/ 15 1014.6F


................COASTAL AND OFFSHORE BUOYS................


STATION/POSITION TIME  SKY/WX   TEMP    WIND        PRES    VSBY
                                AIR SEA DIR/SP/G
                 (UTC)          (F)     (DEG/KT/KT) (MB)    (MI)
DIMNDSHOAL 41025 0050            81 86  330/  2/  4 1014.8R
WVE H/P(F/S)=  2/ 8 SWL H/P/D(F/S/D)=  2/100/ 8

CAPE LOOKOUT     0100            81     230/  4/  5 1014.5R
ONSLOW BAY 41036 NOT AVBL
ONSLOW BAY 41064 0008            82 83  240/  8/ 10 1014.7R
ONSLOW BAY 41159 0025               83                N/A
WVE H/P(F/S)=  2/ 9 WND WVE H/P(F/S)=  2/ 9

5SE WRITBC 41038 0008            83 82  230/ 12/ 16 1014.1S
MASNBO INL 41110 0019               83                N/A
WVE H/P(F/S)=  2/ 3 WND WVE H/P(F/S)=  2/ 3

WILM HARBR 41108 0011               83                N/A
WVE H/P(F/S)=  2/ 3 WND WVE H/P(F/S)=  2/ 3

27SE WRITB 41037 0000            79 82  250/ 10/ 12   N/A
FRYING PAN 41013 0050            83 82  220/ 10/ 12 1015.1R
WVE H/P(F/S)=  2/ 9 SWL H/P/D(F/S/D)=  2/120/ 9

SUNST NRSH 41024 0008            83     230/ 12/ 16 1014.2F
CAPRS NRSH 41029 0008            83     240/ 10/ 14 1015.1F
EDISTO     41004 0050            82 84  210/  6/  6 1015.2R
WVE H/P(F/S)=  2/ 8 SWL H/P/D(F/S/D)=  2/ 8



..........OFFSHORE BUOYS BEYOND 100 NM OFFSHORE...........
.....IN A TRIANGLE---HAT TO BERMUDA TO BAHAMAS TO HAT.....


STATION/POSITION TIME  SKY/WX   TEMP    WIND        PRES    VSBY
                                AIR SEA DIR/SP/G
                 (UTC)          (F)     (DEG/KT/KT) (MB)    (MI)
150E HAT   41001 0000            80 83   CALM  /  2 1014.0S
W BERMUDA  41048 0050            83 83  280/ 14/ 16 1013.0F
WVE H/P(F/S)=  4/ 6 WND WVE H/P(F/S)=  3/ 6 SWL H/P/D(F/S/D)=  2/ 30/13

ATLANTIC S 41049 0050            84 86  330/  6/  6 1015.8R
WVE H/P(F/S)=  3/12 WND WVE H/P(F/S)=  2/ 4 SWL H/P/D(F/S/D)=  3/ 10/12

E BAHAMAS  41046 0050            84 87  110/  4/  6 1016.7R
WVE H/P(F/S)=  2/14 SWL H/P/D(F/S/D)=  2/ 30/14

NE BAHAMAS 41047 0050            83 87   20/  2/  4 1015.3F
WVE H/P(F/S)=  2/ 9 SWL H/P/D(F/S/D)=  2/100/ 9

120E CANVRL41010 0020            85 87  240/  2/  2 1015.9F

END


USA.gov is the U.S. government's official web portal to all federal, state and local government web resources and services.